GW3876 Weather Reports


time (UTC)temp
F
wind
direction
speed
knots
gust
knots
rain 1hr
in
rain 24hr
in
rain mn
in
humidity
%
barometer
mb
20260504230006 58 229 4.3 13.9 0.00 0.00 0.00 64 1010.8
20260504224504 59 153 6.1 11.3 0.00 0.00 0.00 62 1010.8
20260504223003 60 115 1.7 7.0 0.00 0.00 0.00 60 1010.7
20260504221505 60 209 5.2 14.8 0.00 0.00 0.00 59 1010.6
20260504220003 61 284 5.2 13.9 0.00 0.00 0.00 57 1010.8
20260504214503 62 219 6.1 15.6 0.00 0.00 0.00 53 1010.8
20260504213009 63 153 6.1 14.8 0.00 0.00 0.00 52 1010.7
20260504211511 64 103 3.5 9.6 0.00 0.00 0.00 50 1010.7
20260504210005 64 98 2.6 15.6 0.00 0.00 0.00 49 1010.7
20260504204504 64 166 7.8 16.5 0.00 0.00 0.00 48 1010.6
20260504203008 65 203 6.1 12.2 0.00 0.00 0.00 47 1010.6
20260504201504 65 226 5.2 13.0 0.00 0.00 0.00 47 1010.5
20260504200004 65 241 3.5 10.4 0.00 0.00 0.00 48 1010.6
20260504194503 66 198 2.6 8.7 0.00 0.00 0.00 48 1010.7
20260504193004 65 240 6.1 17.4 0.00 0.00 0.00 48 1010.8
20260504191504 64 124 7.8 18.2 0.00 0.00 0.00 47 1010.7
20260504190004 64 195 8.7 19.1 0.00 0.00 0.00 47 1010.8
20260504184511 64 245 6.1 16.5 0.00 0.00 0.00 47 1010.9
20260504183007 65 143 5.2 13.0 0.00 0.00 0.00 43 1011.0
20260504181504 66 309 6.1 17.4 0.00 0.00 0.00 40 1011.1
20260504180009 66 221 7.0 15.6 0.00 0.00 0.00 36 1011.3
20260504174508 66 233 4.3 17.4 0.00 0.00 0.00 36 1011.2
20260504173003 66 240 9.6 19.1 0.00 0.00 0.00 35 1011.4
20260504171503 66 80 7.0 19.1 0.00 0.00 0.00 35 1011.4
20260504081508 38 290 0.0 0.9 0.00 0.00 0.00 82 1012.7
20260504050016 36 304 0.0 0.0 0.00 0.00 0.00 78 1012.3
20260504044532 37 304 0.0 1.7 0.00 0.00 0.00 77 1012.5
20260504043019 37 286 0.0 1.7 0.00 0.00 0.00 76 1012.5
20260504041506 38 297 0.9 0.9 0.00 0.00 0.00 76 1012.5
20260504040004 38 306 0.0 0.0 0.00 0.00 0.00 75 1012.4
20260504034533 39 306 0.0 0.0 0.00 0.00 0.00 74 1012.4
20260504033029 39 306 0.0 0.9 0.00 0.00 0.00 73 1012.4
20260504031518 39 320 0.0 1.7 0.00 0.00 0.00 72 1012.3
20260504030018 40 304 0.0 1.7 0.00 0.00 0.00 70 1012.1
20260504024519 40 311 0.9 1.7 0.00 0.00 0.00 69 1012.1
20260504023009 41 298 0.0 0.9 0.00 0.00 0.00 67 1012.0
20260504021507 42 298 0.0 0.9 0.00 0.00 0.00 64 1012.0
20260504020028 43 318 0.9 1.7 0.00 0.00 0.00 63 1012.0
20260504014524 42 323 0.0 0.9 0.00 0.00 0.00 64 1011.8
20260504013033 43 315 0.0 0.9 0.00 0.00 0.00 60 1011.7
20260504011520 44 316 0.0 0.9 0.00 0.00 0.00 58 1011.5
20260504010003 44 346 0.0 0.9 0.00 0.00 0.00 59 1011.3
20260504004513 45 346 0.0 0.9 0.00 0.00 0.00 55 1011.0
20260504003013 47 346 0.0 0.0 0.00 0.00 0.00 50 1011.0
20260504001508 49 346 0.0 0.0 0.00 0.00 0.00 47 1010.8
20260504000007 51 346 0.0 0.0 0.00 0.00 0.00 45 1010.5
20260503234504 52 308 0.0 2.6 0.00 0.00 0.00 37 1010.4
20260503233006 53 320 0.0 4.3 0.00 0.00 0.00 36 1010.3